﻿測定場所 (Monitoring sites),日付 (Measurement date),時間 (Measurement time),線量率 最大値 (max) μGy/h,線量率 最小値 (min) μGy/h,線量率 平均値 (average) μGy/h,
新宿 (Shinjuku),2019-10-20,23:01～24:00,0.0388,0.0324,0.0363,
新宿 (Shinjuku),2019-10-20,22:01～23:00,0.0401,0.0334,0.0365,
新宿 (Shinjuku),2019-10-20,21:01～22:00,0.0396,0.0343,0.0365,
新宿 (Shinjuku),2019-10-20,20:01～21:00,0.0390,0.0347,0.0364,
新宿 (Shinjuku),2019-10-20,19:01～20:00,0.0395,0.0344,0.0364,
新宿 (Shinjuku),2019-10-20,18:01～19:00,0.0377,0.0348,0.0364,
新宿 (Shinjuku),2019-10-20,17:01～18:00,0.0392,0.0348,0.0367,
新宿 (Shinjuku),2019-10-20,16:01～17:00,0.0398,0.0335,0.0364,
新宿 (Shinjuku),2019-10-20,15:01～16:00,0.0413,0.0348,0.0366,
新宿 (Shinjuku),2019-10-20,14:01～15:00,0.0386,0.0343,0.0364,
新宿 (Shinjuku),2019-10-20,13:01～14:00,0.0401,0.0342,0.0365,
新宿 (Shinjuku),2019-10-20,12:01～13:00,0.0399,0.0346,0.0369,
新宿 (Shinjuku),2019-10-20,11:01～12:00,0.0409,0.0359,0.0373,
新宿 (Shinjuku),2019-10-20,10:01～11:00,0.0393,0.0352,0.0370,
新宿 (Shinjuku),2019-10-20,09:01～10:00,0.0399,0.0347,0.0368,
新宿 (Shinjuku),2019-10-20,08:01～09:00,0.0407,0.0347,0.0368,
新宿 (Shinjuku),2019-10-20,07:01～08:00,0.0397,0.0344,0.0369,
新宿 (Shinjuku),2019-10-20,06:01～07:00,0.0393,0.0348,0.0369,
新宿 (Shinjuku),2019-10-20,05:01～06:00,0.0397,0.0345,0.0367,
新宿 (Shinjuku),2019-10-20,04:01～05:00,0.0407,0.0349,0.0371,
新宿 (Shinjuku),2019-10-20,03:01～04:00,0.0394,0.0342,0.0367,
新宿 (Shinjuku),2019-10-20,02:01～03:00,0.0399,0.0339,0.0368,
新宿 (Shinjuku),2019-10-20,01:01～02:00,0.0397,0.0351,0.0367,
新宿 (Shinjuku),2019-10-20,00:01～01:00,0.0418,0.0338,0.0366,
新宿 (Shinjuku),2019-10-19,23:01～24:00,0.0395,0.0348,0.0366,
新宿 (Shinjuku),2019-10-19,22:01～23:00,0.0394,0.0343,0.0366,
新宿 (Shinjuku),2019-10-19,21:01～22:00,0.0403,0.0347,0.0365,
新宿 (Shinjuku),2019-10-19,20:01～21:00,0.0388,0.0347,0.0364,
新宿 (Shinjuku),2019-10-19,19:01～20:00,0.0395,0.0333,0.0364,
新宿 (Shinjuku),2019-10-19,18:01～19:00,0.0382,0.0340,0.0365,
新宿 (Shinjuku),2019-10-19,17:01～18:00,0.0405,0.0340,0.0366,
新宿 (Shinjuku),2019-10-19,16:01～17:00,0.0382,0.0341,0.0362,
新宿 (Shinjuku),2019-10-19,15:01～16:00,0.0405,0.0340,0.0366,
新宿 (Shinjuku),2019-10-19,14:01～15:00,0.0404,0.0346,0.0365,
新宿 (Shinjuku),2019-10-19,13:01～14:00,0.0405,0.0342,0.0366,
新宿 (Shinjuku),2019-10-19,12:01～13:00,0.0394,0.0349,0.0366,
新宿 (Shinjuku),2019-10-19,11:01～12:00,0.0398,0.0335,0.0366,
新宿 (Shinjuku),2019-10-19,10:01～11:00,0.0408,0.0348,0.0372,
新宿 (Shinjuku),2019-10-19,09:01～10:00,0.0430,0.0357,0.0381,
新宿 (Shinjuku),2019-10-19,08:01～09:00,0.0440,0.0368,0.0403,
新宿 (Shinjuku),2019-10-19,07:01～08:00,0.0478,0.0399,0.0440,
新宿 (Shinjuku),2019-10-19,06:01～07:00,0.0524,0.0425,0.0486,
新宿 (Shinjuku),2019-10-19,05:01～06:00,0.0516,0.0425,0.0471,
新宿 (Shinjuku),2019-10-19,04:01～05:00,0.0511,0.0435,0.0473,
新宿 (Shinjuku),2019-10-19,03:01～04:00,0.0505,0.0420,0.0464,
新宿 (Shinjuku),2019-10-19,02:01～03:00,0.0498,0.0424,0.0460,
新宿 (Shinjuku),2019-10-19,01:01～02:00,0.0510,0.0433,0.0473,
新宿 (Shinjuku),2019-10-19,00:01～01:00,0.0499,0.0419,0.0459,
新宿 (Shinjuku),2019-10-18,23:01～24:00,0.0483,0.0366,0.0432,
新宿 (Shinjuku),2019-10-18,22:01～23:00,0.0450,0.0359,0.0396,
新宿 (Shinjuku),2019-10-18,21:01～22:00,0.0459,0.0381,0.0416,
新宿 (Shinjuku),2019-10-18,20:01～21:00,0.0452,0.0363,0.0404,
新宿 (Shinjuku),2019-10-18,19:01～20:00,0.0415,0.0353,0.0376,
新宿 (Shinjuku),2019-10-18,18:01～19:00,0.0400,0.0351,0.0374,
新宿 (Shinjuku),2019-10-18,17:01～18:00,0.0426,0.0353,0.0383,
新宿 (Shinjuku),2019-10-18,16:01～17:00,0.0402,0.0348,0.0368,
新宿 (Shinjuku),2019-10-18,15:01～16:00,0.0401,0.0352,0.0364,
新宿 (Shinjuku),2019-10-18,14:01～15:00,0.0400,0.0346,0.0368,
新宿 (Shinjuku),2019-10-18,13:01～14:00,0.0416,0.0339,0.0370,
新宿 (Shinjuku),2019-10-18,12:01～13:00,0.0422,0.0347,0.0372,
新宿 (Shinjuku),2019-10-18,11:01～12:00,0.0396,0.0346,0.0368,
新宿 (Shinjuku),2019-10-18,10:01～11:00,0.0424,0.0349,0.0366,
新宿 (Shinjuku),2019-10-18,09:01～10:00,0.0396,0.0345,0.0366,
新宿 (Shinjuku),2019-10-18,08:01～09:00,0.0395,0.0339,0.0364,
新宿 (Shinjuku),2019-10-18,07:01～08:00,0.0417,0.0352,0.0377,
新宿 (Shinjuku),2019-10-18,06:01～07:00,0.0446,0.0365,0.0406,
新宿 (Shinjuku),2019-10-18,05:01～06:00,0.0471,0.0377,0.0416,
新宿 (Shinjuku),2019-10-18,04:01～05:00,0.0421,0.0356,0.0388,
新宿 (Shinjuku),2019-10-18,03:01～04:00,0.0423,0.0342,0.0371,
新宿 (Shinjuku),2019-10-18,02:01～03:00,0.0396,0.0348,0.0364,
新宿 (Shinjuku),2019-10-18,01:01～02:00,0.0394,0.0342,0.0364,
新宿 (Shinjuku),2019-10-18,00:01～01:00,0.0397,0.0340,0.0366,
新宿 (Shinjuku),2019-10-17,23:01～24:00,0.0401,0.0350,0.0371,
新宿 (Shinjuku),2019-10-17,22:01～23:00,0.0421,0.0355,0.0385,
新宿 (Shinjuku),2019-10-17,21:01～22:00,0.0432,0.0364,0.0388,
新宿 (Shinjuku),2019-10-17,20:01～21:00,0.0431,0.0344,0.0376,
新宿 (Shinjuku),2019-10-17,19:01～20:00,0.0412,0.0353,0.0372,
新宿 (Shinjuku),2019-10-17,18:01～19:00,0.0448,0.0366,0.0406,
新宿 (Shinjuku),2019-10-17,17:01～18:00,0.0514,0.0399,0.0465,
新宿 (Shinjuku),2019-10-17,16:01～17:00,0.0517,0.0414,0.0461,
新宿 (Shinjuku),2019-10-17,15:01～16:00,0.0500,0.0414,0.0451,
新宿 (Shinjuku),2019-10-17,14:01～15:00,0.0460,0.0348,0.0401,
新宿 (Shinjuku),2019-10-17,13:01～14:00,0.0387,0.0346,0.0364,
新宿 (Shinjuku),2019-10-17,12:01～13:00,0.0409,0.0349,0.0366,
新宿 (Shinjuku),2019-10-17,11:01～12:00,0.0391,0.0350,0.0367,
新宿 (Shinjuku),2019-10-17,10:01～11:00,0.0407,0.0347,0.0370,
新宿 (Shinjuku),2019-10-17,09:01～10:00,0.0414,0.0347,0.0368,
新宿 (Shinjuku),2019-10-17,08:01～09:00,0.0406,0.0348,0.0368,
新宿 (Shinjuku),2019-10-17,07:01～08:00,0.0389,0.0346,0.0367,
新宿 (Shinjuku),2019-10-17,06:01～07:00,0.0402,0.0349,0.0364,
新宿 (Shinjuku),2019-10-17,05:01～06:00,0.0412,0.0343,0.0367,
新宿 (Shinjuku),2019-10-17,04:01～05:00,0.0393,0.0347,0.0366,
新宿 (Shinjuku),2019-10-17,03:01～04:00,0.0409,0.0335,0.0366,
新宿 (Shinjuku),2019-10-17,02:01～03:00,0.0391,0.0349,0.0364,
新宿 (Shinjuku),2019-10-17,01:01～02:00,0.0388,0.0346,0.0365,
新宿 (Shinjuku),2019-10-17,00:01～01:00,0.0406,0.0342,0.0369,
新宿 (Shinjuku),2019-10-16,23:01～24:00,0.0404,0.0345,0.0367,
新宿 (Shinjuku),2019-10-16,22:01～23:00,0.0391,0.0342,0.0364,
新宿 (Shinjuku),2019-10-16,21:01～22:00,0.0399,0.0346,0.0365,
新宿 (Shinjuku),2019-10-16,20:01～21:00,0.0413,0.0348,0.0368,
新宿 (Shinjuku),2019-10-16,19:01～20:00,0.0404,0.0341,0.0364,
新宿 (Shinjuku),2019-10-16,18:01～19:00,0.0395,0.0345,0.0366,
新宿 (Shinjuku),2019-10-16,17:01～18:00,0.0394,0.0349,0.0366,
新宿 (Shinjuku),2019-10-16,16:01～17:00,0.0404,0.0350,0.0366,
新宿 (Shinjuku),2019-10-16,15:01～16:00,0.0381,0.0348,0.0363,
新宿 (Shinjuku),2019-10-16,14:01～15:00,0.0402,0.0342,0.0365,
新宿 (Shinjuku),2019-10-16,13:01～14:00,0.0391,0.0349,0.0366,
新宿 (Shinjuku),2019-10-16,12:01～13:00,0.0400,0.0347,0.0366,
新宿 (Shinjuku),2019-10-16,11:01～12:00,0.0400,0.0340,0.0366,
新宿 (Shinjuku),2019-10-16,10:01～11:00,0.0388,0.0343,0.0365,
新宿 (Shinjuku),2019-10-16,09:01～10:00,0.0413,0.0339,0.0365,
新宿 (Shinjuku),2019-10-16,08:01～09:00,0.0404,0.0348,0.0369,
新宿 (Shinjuku),2019-10-16,07:01～08:00,0.0400,0.0348,0.0366,
新宿 (Shinjuku),2019-10-16,06:01～07:00,0.0399,0.0347,0.0367,
新宿 (Shinjuku),2019-10-16,05:01～06:00,0.0412,0.0342,0.0367,
新宿 (Shinjuku),2019-10-16,04:01～05:00,0.0412,0.0345,0.0366,
新宿 (Shinjuku),2019-10-16,03:01～04:00,0.0399,0.0341,0.0366,
新宿 (Shinjuku),2019-10-16,02:01～03:00,0.0401,0.0343,0.0364,
新宿 (Shinjuku),2019-10-16,01:01～02:00,0.0400,0.0345,0.0368,
新宿 (Shinjuku),2019-10-16,00:01～01:00,0.0395,0.0340,0.0365,
新宿 (Shinjuku),2019-10-15,23:01～24:00,0.0383,0.0347,0.0363,
新宿 (Shinjuku),2019-10-15,22:01～23:00,0.0405,0.0351,0.0370,
新宿 (Shinjuku),2019-10-15,21:01～22:00,0.0391,0.0346,0.0365,
新宿 (Shinjuku),2019-10-15,20:01～21:00,0.0394,0.0340,0.0365,
新宿 (Shinjuku),2019-10-15,19:01～20:00,0.0381,0.0343,0.0364,
新宿 (Shinjuku),2019-10-15,18:01～19:00,0.0400,0.0342,0.0365,
新宿 (Shinjuku),2019-10-15,17:01～18:00,0.0395,0.0347,0.0366,
新宿 (Shinjuku),2019-10-15,16:01～17:00,0.0404,0.0339,0.0364,
新宿 (Shinjuku),2019-10-15,15:01～16:00,0.0390,0.0342,0.0363,
新宿 (Shinjuku),2019-10-15,14:01～15:00,0.0392,0.0343,0.0364,
新宿 (Shinjuku),2019-10-15,13:01～14:00,0.0407,0.0348,0.0367,
新宿 (Shinjuku),2019-10-15,12:01～13:00,0.0413,0.0341,0.0369,
新宿 (Shinjuku),2019-10-15,11:01～12:00,0.0395,0.0342,0.0365,
新宿 (Shinjuku),2019-10-15,10:01～11:00,0.0398,0.0341,0.0366,
新宿 (Shinjuku),2019-10-15,09:01～10:00,0.0416,0.0337,0.0368,
新宿 (Shinjuku),2019-10-15,08:01～09:00,0.0380,0.0336,0.0364,
新宿 (Shinjuku),2019-10-15,07:01～08:00,0.0396,0.0344,0.0365,
新宿 (Shinjuku),2019-10-15,06:01～07:00,0.0393,0.0338,0.0363,
新宿 (Shinjuku),2019-10-15,05:01～06:00,0.0387,0.0341,0.0365,
新宿 (Shinjuku),2019-10-15,04:01～05:00,0.0404,0.0341,0.0365,
新宿 (Shinjuku),2019-10-15,03:01～04:00,0.0402,0.0346,0.0364,
新宿 (Shinjuku),2019-10-15,02:01～03:00,0.0402,0.0345,0.0367,
新宿 (Shinjuku),2019-10-15,01:01～02:00,0.0412,0.0345,0.0365,
新宿 (Shinjuku),2019-10-15,00:01～01:00,0.0426,0.0352,0.0374,
新宿 (Shinjuku),2019-10-14,23:01～24:00,0.0423,0.0353,0.0380,
新宿 (Shinjuku),2019-10-14,22:01～23:00,0.0425,0.0358,0.0391,
新宿 (Shinjuku),2019-10-14,21:01～22:00,0.0428,0.0360,0.0386,
新宿 (Shinjuku),2019-10-14,20:01～21:00,0.0409,0.0354,0.0372,
新宿 (Shinjuku),2019-10-14,19:01～20:00,0.0404,0.0351,0.0378,
新宿 (Shinjuku),2019-10-14,18:01～19:00,0.0445,0.0371,0.0404,
新宿 (Shinjuku),2019-10-14,17:01～18:00,0.0438,0.0365,0.0396,
新宿 (Shinjuku),2019-10-14,16:01～17:00,0.0461,0.0373,0.0408,
新宿 (Shinjuku),2019-10-14,15:01～16:00,0.0448,0.0373,0.0403,
新宿 (Shinjuku),2019-10-14,14:01～15:00,0.0447,0.0371,0.0411,
新宿 (Shinjuku),2019-10-14,13:01～14:00,0.0472,0.0370,0.0412,
新宿 (Shinjuku),2019-10-14,12:01～13:00,0.0429,0.0363,0.0387,
新宿 (Shinjuku),2019-10-14,11:01～12:00,0.0448,0.0368,0.0413,
新宿 (Shinjuku),2019-10-14,10:01～11:00,0.0480,0.0372,0.0425,
新宿 (Shinjuku),2019-10-14,09:01～10:00,0.0458,0.0366,0.0406,
新宿 (Shinjuku),2019-10-14,08:01～09:00,0.0439,0.0361,0.0401,
新宿 (Shinjuku),2019-10-14,07:01～08:00,0.0435,0.0358,0.0396,
新宿 (Shinjuku),2019-10-14,06:01～07:00,0.0407,0.0350,0.0369,
新宿 (Shinjuku),2019-10-14,05:01～06:00,0.0403,0.0345,0.0367,
新宿 (Shinjuku),2019-10-14,04:01～05:00,0.0400,0.0340,0.0362,
新宿 (Shinjuku),2019-10-14,03:01～04:00,0.0411,0.0346,0.0365,
新宿 (Shinjuku),2019-10-14,02:01～03:00,0.0387,0.0349,0.0365,
新宿 (Shinjuku),2019-10-14,01:01～02:00,0.0394,0.0331,0.0366,
新宿 (Shinjuku),2019-10-14,00:01～01:00,0.0405,0.0344,0.0368,
